| time (UTC) | temp C | wind direction | speed KPH | gust KPH | rain 1hr cm | rain 24hr cm | rain mn cm | humidity % | barometer mb |
| 20260901211536 | 18 | 77 | 0.0 | 6.4 | 0.00 | 0.41 | 0.41 | 92 | 1017.6 |
| 20260901210023 | 18 | 13 | 0.0 | 8.0 | 0.00 | 0.41 | 0.41 | 93 | 1017.3 |
| 20260901204503 | 18 | 65 | 4.8 | 14.5 | 0.00 | 0.41 | 0.41 | 93 | 1017.1 |
| 20260901203006 | 18 | 69 | 0.0 | 14.5 | 0.00 | 0.41 | 0.41 | 93 | 1016.9 |
| 20260901201544 | 18 | 300 | 0.0 | 11.3 | 0.00 | 0.41 | 0.41 | 94 | 1016.8 |
| 20260901200052 | 18 | 175 | 3.2 | 9.7 | 0.00 | 0.41 | 0.41 | 94 | 1016.7 |
| 20260901194524 | 18 | 101 | 3.2 | 12.9 | 0.00 | 0.41 | 0.41 | 94 | 1016.8 |
| 20260901193024 | 19 | 206 | 3.2 | 8.0 | 0.00 | 0.41 | 0.41 | 94 | 1016.5 |
| 20260901191502 | 19 | 45 | 0.0 | 8.0 | 0.00 | 0.41 | 0.41 | 93 | 1016.4 |
| 20260901190005 | 20 | 122 | 3.2 | 14.5 | 0.00 | 0.41 | 0.41 | 92 | 1016.4 |
| 20260901184603 | 22 | 88 | 0.0 | 1.6 | 0.00 | 0.41 | 0.41 | 92 | 1016.1 |
| 20260901183051 | 22 | 126 | 0.0 | 1.6 | 0.00 | 0.41 | 0.41 | 92 | 1016.2 |
| 20260901181546 | 22 | 236 | 0.0 | 3.2 | 0.00 | 0.41 | 0.41 | 93 | 1016.3 |
| 20260901180043 | 22 | 85 | 0.0 | 1.6 | 0.00 | 0.41 | 0.41 | 93 | 1016.5 |
| 20260901174542 | 22 | 47 | 0.0 | 4.8 | 0.00 | 0.41 | 0.41 | 93 | 1016.6 |
| 20260901173038 | 22 | 211 | 0.0 | 6.4 | 0.00 | 0.41 | 0.41 | 93 | 1016.3 |
| 20260901171535 | 22 | 84 | 0.0 | 3.2 | 0.00 | 0.41 | 0.41 | 94 | 1016.2 |
| 20260901170034 | 22 | 101 | 0.0 | 6.4 | 0.00 | 0.41 | 0.41 | 94 | 1016.6 |
| 20260901164533 | 22 | 226 | 0.0 | 4.8 | 0.00 | 0.41 | 0.41 | 94 | 1016.7 |
| 20260901163013 | 21 | 105 | 0.0 | 4.8 | 0.00 | 0.41 | 0.41 | 94 | 1016.9 |
| 20260901161512 | 21 | 89 | 0.0 | 4.8 | 0.00 | 0.41 | 0.41 | 93 | 1017.0 |
| 20260901160055 | 22 | 226 | 0.0 | 3.2 | 0.00 | 0.41 | 0.41 | 94 | 1017.2 |
| 20260901154553 | 21 | 138 | 0.0 | 3.2 | 0.03 | 0.41 | 0.41 | 94 | 1017.3 |
| 20260901153042 | 22 | 109 | 0.0 | 3.2 | 0.08 | 0.41 | 0.41 | 95 | 1017.2 |
| 20260901151540 | 21 | 142 | 0.0 | 0.0 | 0.10 | 0.41 | 0.41 | 94 | 1017.3 |
| 20260901150038 | 21 | 131 | 0.0 | 4.8 | 0.10 | 0.41 | 0.41 | 95 | 1017.3 |
| 20260901144535 | 21 | 141 | 0.0 | 4.8 | 0.15 | 0.38 | 0.38 | 95 | 1017.5 |
| 20260901143037 | 21 | 243 | 0.0 | 8.0 | 0.18 | 0.33 | 0.33 | 95 | 1017.7 |
| 20260901141539 | 21 | 70 | 0.0 | 1.6 | 0.15 | 0.30 | 0.30 | 95 | 1017.6 |
| 20260901140031 | 20 | 83 | 0.0 | 1.6 | 0.15 | 0.30 | 0.30 | 95 | 1017.8 |
| 20260901134530 | 20 | 96 | 0.0 | 0.0 | 0.08 | 0.23 | 0.23 | 95 | 1017.8 |
| 20260901133011 | 20 | 96 | 0.0 | 3.2 | 0.00 | 0.15 | 0.15 | 95 | 1017.8 |
| 20260901131521 | 20 | 331 | 0.0 | 1.6 | 0.00 | 0.15 | 0.15 | 95 | 1017.7 |
| 20260901130059 | 20 | 72 | 0.0 | 3.2 | 0.03 | 0.15 | 0.15 | 95 | 1017.8 |
| 20260901124558 | 20 | 72 | 0.0 | 6.4 | 0.03 | 0.15 | 0.15 | 96 | 1017.9 |
| 20260901123104 | 20 | 136 | 0.0 | 6.4 | 0.03 | 0.15 | 0.15 | 96 | 1017.8 |
| 20260901121556 | 20 | 269 | 0.0 | 1.6 | 0.03 | 0.15 | 0.15 | 96 | 1017.8 |
| 20260901120057 | 20 | 130 | 0.0 | 1.6 | 0.00 | 0.15 | 0.13 | 96 | 1017.8 |
| 20260901114556 | 20 | 170 | 0.0 | 4.8 | 0.00 | 0.15 | 0.13 | 96 | 1017.8 |
| 20260901113102 | 20 | 131 | 0.0 | 1.6 | 0.00 | 0.15 | 0.13 | 96 | 1017.7 |
| 20260901111554 | 20 | 224 | 0.0 | 1.6 | 0.00 | 0.15 | 0.13 | 96 | 1017.8 |
| 20260901110036 | 20 | 203 | 0.0 | 1.6 | 0.00 | 0.15 | 0.13 | 96 | 1017.8 |
| 20260901104535 | 20 | 91 | 0.0 | 1.6 | 0.00 | 0.15 | 0.13 | 96 | 1017.7 |
| 20260901103025 | 20 | 199 | 0.0 | 1.6 | 0.00 | 0.15 | 0.13 | 95 | 1017.6 |
| 20260901101525 | 20 | 103 | 0.0 | 1.6 | 0.00 | 0.15 | 0.13 | 95 | 1017.7 |
| 20260901100023 | 19 | 148 | 0.0 | 0.0 | 0.03 | 0.15 | 0.13 | 95 | 1017.6 |
| 20260901094523 | 19 | 150 | 0.0 | 0.0 | 0.05 | 0.15 | 0.13 | 95 | 1017.7 |
| 20260901093021 | 19 | 211 | 0.0 | 4.8 | 0.08 | 0.15 | 0.13 | 95 | 1017.5 |
| 20260901091520 | 19 | 113 | 0.0 | 4.8 | 0.08 | 0.15 | 0.13 | 95 | 1017.8 |
| 20260901090017 | 19 | 34 | 0.0 | 3.2 | 0.05 | 0.13 | 0.10 | 95 | 1017.9 |
| 20260901084515 | 19 | 192 | 0.0 | 0.0 | 0.03 | 0.10 | 0.08 | 94 | 1018.2 |
| 20260901083057 | 20 | 69 | 0.0 | 1.6 | 0.03 | 0.08 | 0.05 | 94 | 1018.2 |
| 20260901081556 | 20 | 69 | 0.0 | 1.6 | 0.03 | 0.08 | 0.05 | 94 | 1018.4 |
| 20260901080039 | 20 | 103 | 0.0 | 3.2 | 0.03 | 0.08 | 0.05 | 94 | 1018.3 |
| 20260901074540 | 20 | 72 | 0.0 | 0.0 | 0.05 | 0.08 | 0.05 | 94 | 1018.4 |
| 20260901073018 | 20 | 72 | 0.0 | 0.0 | 0.03 | 0.05 | 0.03 | 93 | 1018.5 |
| 20260901071518 | 20 | 72 | 0.0 | 0.0 | 0.03 | 0.05 | 0.03 | 93 | 1018.5 |
| 20260901070106 | 20 | 72 | 0.0 | 0.0 | 0.03 | 0.05 | 0.03 | 93 | 1018.5 |
| 20260901064557 | 20 | 72 | 0.0 | 1.6 | 0.00 | 0.03 | 0.00 | 93 | 1018.6 |
| 20260901063039 | 20 | 72 | 0.0 | 1.6 | 0.00 | 0.03 | 0.00 | 92 | 1018.7 |
| 20260901061536 | 20 | 72 | 0.0 | 1.6 | 0.00 | 0.03 | 0.00 | 92 | 1018.8 |
| 20260901060024 | 20 | 72 | 0.0 | 0.0 | 0.00 | 0.03 | 0.00 | 91 | 1018.8 |
| 20260901054523 | 20 | 72 | 0.0 | 1.6 | 0.00 | 0.03 | 0.00 | 90 | 1018.9 |
| 20260901053021 | 20 | 72 | 0.0 | 1.6 | 0.00 | 0.03 | 0.00 | 90 | 1019.1 |
| 20260901051521 | 20 | 72 | 0.0 | 0.0 | 0.00 | 0.03 | 0.00 | 90 | 1019.1 |
| 20260901050021 | 20 | 72 | 0.0 | 1.6 | 0.00 | 0.03 | 0.00 | 90 | 1019.2 |
| 20260901044519 | 20 | 72 | 0.0 | 0.0 | 0.00 | 0.03 | 0.00 | 89 | 1019.5 |
| 20260901043021 | 20 | 72 | 0.0 | 0.0 | 0.00 | 0.03 | 0.00 | 89 | 1019.5 |
| 20260901041516 | 20 | 72 | 0.0 | 1.6 | 0.00 | 0.03 | 0.00 | 88 | 1019.4 |
| 20260901040107 | 20 | 77 | 0.0 | 0.0 | 0.00 | 0.03 | 0.03 | 89 | 1019.5 |
| 20260901034607 | 20 | 75 | 0.0 | 1.6 | 0.00 | 0.03 | 0.03 | 88 | 1019.4 |
| 20260901033037 | 20 | 136 | 0.0 | 0.0 | 0.00 | 0.03 | 0.03 | 88 | 1019.6 |
| 20260901031538 | 20 | 136 | 0.0 | 0.0 | 0.00 | 0.03 | 0.03 | 87 | 1019.8 |
| 20260901030019 | 20 | 136 | 0.0 | 0.0 | 0.00 | 0.03 | 0.03 | 87 | 1019.8 |
| 20260901024519 | 20 | 136 | 0.0 | 0.0 | 0.00 | 0.03 | 0.03 | 86 | 1019.8 |
| 20260901023007 | 20 | 200 | 0.0 | 1.6 | 0.00 | 0.03 | 0.03 | 86 | 1019.8 |
| 20260901021503 | 20 | 84 | 0.0 | 0.0 | 0.00 | 0.03 | 0.03 | 86 | 1019.7 |
| 20260901020045 | 20 | 79 | 0.0 | 1.6 | 0.00 | 0.03 | 0.03 | 86 | 1019.9 |
| 20260901014543 | 20 | 122 | 0.0 | 0.0 | 0.00 | 0.03 | 0.03 | 86 | 1020.3 |
| 20260901013033 | 20 | 117 | 0.0 | 1.6 | 0.00 | 0.03 | 0.03 | 85 | 1020.2 |
| 20260901011532 | 20 | 105 | 0.0 | 1.6 | 0.00 | 0.03 | 0.03 | 85 | 1020.1 |
| 20260901010031 | 20 | 105 | 0.0 | 0.0 | 0.00 | 0.03 | 0.03 | 85 | 1020.0 |
| 20260901004531 | 20 | 170 | 0.0 | 1.6 | 0.00 | 0.03 | 0.03 | 84 | 1020.0 |
| 20260901003030 | 20 | 168 | 0.0 | 1.6 | 0.00 | 0.03 | 0.03 | 84 | 1019.8 |
| 20260901001530 | 20 | 78 | 0.0 | 0.0 | 0.00 | 0.03 | 0.03 | 83 | 1019.9 |
| 20260901000029 | 20 | 78 | 0.0 | 1.6 | 0.00 | 0.03 | 0.03 | 82 | 1019.8 |
| 20260831234532 | 20 | 100 | 0.0 | 1.6 | 0.00 | 0.03 | 0.03 | 81 | 1020.0 |
| 20260831233014 | 21 | 169 | 0.0 | 0.0 | 0.00 | 0.03 | 0.03 | 80 | 1020.1 |
| 20260831231523 | 21 | 149 | 0.0 | 1.6 | 0.00 | 0.03 | 0.03 | 79 | 1020.2 |
| 20260831230051 | 21 | 214 | 0.0 | 3.2 | 0.00 | 0.03 | 0.03 | 78 | 1020.3 |
| 20260831224550 | 21 | 145 | 0.0 | 1.6 | 0.00 | 0.03 | 0.03 | 77 | 1020.4 |
| 20260831223037 | 21 | 198 | 0.0 | 4.8 | 0.00 | 0.03 | 0.03 | 77 | 1020.4 |
| 20260831221533 | 21 | 108 | 0.0 | 3.2 | 0.00 | 0.03 | 0.03 | 77 | 1020.3 |
| 20260831220014 | 22 | 200 | 0.0 | 4.8 | 0.00 | 0.03 | 0.03 | 79 | 1020.3 |
| 20260831214512 | 22 | 228 | 0.0 | 8.0 | 0.00 | 0.03 | 0.03 | 79 | 1020.4 |
| 20260831213058 | 22 | 124 | 0.0 | 8.0 | 0.00 | 0.03 | 0.03 | 78 | 1020.5 |